RH
74 77 75 73 73 75 78 80 87 91 90 92 91 89 85 82 79 73 70 71 71 71 71 71 72 69 64 63 67 65 60 54 51 52 51 56 60 58 59 62 63 63 61 60 58 59 61 58 59 59 57 59 58 56 55 54 53 52 51 50 49 48 47 44 43 42 41 41 42 41 40 39 40 40 40 39 38 38 39 41 43 47 48 45 46 45 46 45 41 38 34 41 46 50 52 52 58
74 76 74 73 74 79 85 88 92 92 90 89 91 89 84 80 77 73 68 69 69 68 73 75 74 71 67 69 73 69 63 58 52 49 47 48 51 50 50 51 55 59 60 60 58 57 58 59 58 57 58 59 57 56 54 53 52 50 49 47 45 42 39 38 34 33 34 33 35 34 33 31 31 32 32 32 31 32 33 38 43 46 51 50 48 47 48 49 43 38 33 39 46 48 51 52 57
74 75 74 74 78 84 87 90 94 94 89 87 90 88 81 77 76 77 71 71 72 68 74 78 77 72 70 71 74 74 65 59 54 47 44 45 46 46 45 45 47 53 57 57 58 58 59 61 59 57 59 59 58 56 53 51 49 46 44 39 38 36 33 39 39 35 34 38 45 40 32 28 29 29 30 35 33 36 38 43 48 46 53 53 50 51 51 51 44 38 35 40 48 48 52 52 49
75 75 75 76 82 86 87 92 96 94 89 86 87 86 84 79 78 80 75 73 73 70 73 77 77 73 73 72 74 77 69 60 52 45 43 44 44 42 42 44 46 51 55 57 59 59 60 61 59 58 59 59 57 53 51 46 41 38 38 35 37 42 41 47 49 45 44 51 59 53 42 35 37 38 40 52 49 50 53 52 53 49 54 54 54 56 53 49 42 39 41 46 50 49 52 53 48
75 76 78 80 86 90 90 92 92 91 89 85 84 87 87 81 76 76 75 76 78 76 73 73 73 72 76 77 77 77 71 62 50 45 46 45 46 44 45 47 49 52 56 59 61 61 61 60 59 59 60 58 53 48 44 38 37 36 39 41 42 48 50 53 52 51 56 58 60 54 47 41 45 46 48 63 60 57 59 58 56 53 57 59 59 55 50 50 48 47 47 49 51 52 53 53 51
75 78 85 86 88 91 92 91 84 84 88 86 84 86 87 81 73 73 76 79 81 79 76 75 72 71 74 78 79 73 69 62 49 46 47 47 49 49 50 51 52 53 55 59 61 62 60 58 57 58 55 52 45 37 34 36 42 43 44 47 48 52 55 57 52 50 55 55 58 54 48 46 50 54 55 60 62 60 60 61 59 59 63 63 59 51 50 55 57 57 53 54 55 55 56 56 56
73 79 88 88 88 88 93 92 84 84 89 88 83 81 84 77 70 73 76 76 78 76 77 79 75 73 71 73 73 68 65 59 50 47 48 48 49 51 52 53 53 53 56 59 61 61 58 55 55 53 48 43 35 31 36 44 48 48 49 50 53 58 59 58 54 52 51 48 51 50 51 56 57 61 61 61 63 63 60 61 61 63 65 61 54 51 54 55 57 58 56 57 57 57 61 63 59
76 80 83 84 90 91 94 92 87 90 91 89 84 81 80 73 70 75 75 72 73 72 78 82 80 76 68 67 68 66 63 56 52 48 49 50 49 52 53 54 55 54 56 58 59 58 55 52 50 47 41 34 32 38 46 50 52 54 55 54 57 64 62 56 54 53 49 47 49 50 59 69 66 61 61 62 63 63 59 61 63 60 61 59 56 56 56 53 55 59 59 60 59 60 64 63 59
87 88 88 89 94 96 97 92 90 94 92 90 86 80 77 72 74 75 72 73 73 72 79 81 81 78 69 69 70 66 61 56 55 50 49 51 51 53 54 56 56 55 54 55 57 54 50 47 44 40 31 29 43 52 50 53 59 60 59 58 62 67 62 52 52 53 49 54 58 56 61 68 66 59 57 59 60 61 61 63 63 58 59 61 60 61 61 58 59 61 63 63 63 64 65 62 60
93 94 96 96 92 92 97 93 91 94 91 90 84 79 77 76 78 76 74 77 75 72 77 80 81 80 74 74 72 64 59 57 56 52 52 52 53 55 55 56 55 54 52 52 52 48 44 41 36 29 25 38 56 58 54 58 61 59 61 61 65 67 57 49 50 51 54 63 66 59 60 65 64 62 61 60 60 60 62 63 62 60 60 61 60 61 64 65 60 58 63 64 64 66 65 63 61
94 93 98 99 89 85 90 90 91 95 91 87 83 80 79 78 76 73 74 76 77 72 72 75 76 81 78 69 65 61 58 58 57 53 53 54 53 54 53 52 50 51 51 48 45 41 37 32 27 26 35 52 61 60 59 59 57 58 63 65 68 67 55 50 52 49 56 67 66 60 63 69 67 66 68 67 65 62 64 65 64 63 62 61 60 61 63 63 58 58 62 64 66 67 65 63 63
94 94 98 99 93 84 81 85 90 94 92 87 83 81 79 76 71 67 65 65 69 68 65 66 68 82 78 61 57 58 59 59 58 53 51 50 49 49 50 47 44 46 48 44 39 33 28 25 28 36 50 61 62 59 58 57 56 57 63 66 66 66 55 52 53 48 56 66 62 60 67 73 69 69 72 71 69 64 63 63 64 65 64 63 62 60 60 60 60 61 64 67 68 67 65 65 65
96 96 98 98 98 89 75 80 89 93 92 87 83 80 77 72 67 61 54 52 55 55 54 57 62 76 72 53 53 57 58 57 54 51 48 47 46 47 46 43 40 40 41 38 31 26 24 29 38 46 54 61 60 56 56 57 54 55 66 67 62 60 53 50 51 48 57 65 61 62 71 73 69 70 71 72 72 65 61 58 57 59 61 63 62 61 61 62 62 63 65 66 67 66 65 64 63
97 97 97 96 99 87 72 80 88 91 92 88 84 80 75 71 68 56 47 46 49 49 48 53 56 63 60 46 47 52 52 52 49 49 48 47 45 43 41 37 34 32 30 27 25 25 30 40 48 51 55 58 58 56 56 52 54 62 67 62 57 55 50 50 48 47 59 67 64 65 70 71 69 70 70 72 70 65 67 63 57 59 60 62 64 65 63 62 62 63 65 65 66 65 63 60 61
96 98 96 95 96 83 75 82 83 86 90 87 84 81 75 73 70 55 47 47 46 51 51 51 56 57 50 38 37 43 44 46 47 48 46 43 39 36 34 30 27 24 23 23 25 30 38 48 52 53 56 60 58 56 55 54 61 66 57 50 53 54 51 51 48 47 56 62 64 66 68 68 68 67 65 68 64 61 69 70 66 65 62 62 66 64 60 61 61 63 65 65 65 62 60 59 58
95 97 96 96 94 82 82 85 81 84 87 87 84 79 76 74 69 52 48 50 45 53 52 48 55 54 45 36 34 38 41 43 44 43 39 35 33 30 28 26 23 21 21 23 27 34 44 50 53 53 55 59 59 57 60 63 63 57 49 49 55 59 57 52 49 47 50 57 61 65 67 68 69 67 61 60 61 62 64 65 67 65 62 63 62 59 58 60 61 62 63 62 61 60 60 60 58
95 94 96 99 92 83 85 85 79 79 82 86 82 77 76 69 64 52 48 53 50 53 53 48 53 51 44 39 37 37 39 39 38 36 33 32 30 27 25 24 20 18 20 23 28 37 45 49 51 52 51 55 58 59 63 64 59 54 53 57 59 62 63 57 54 48 49 60 62 62 69 71 72 71 64 59 60 64 64 63 62 59 61 64 60 58 58 60 61 61 60 59 58 58 60 61 58
95 94 98 98 90 85 87 86 78 77 80 83 80 78 77 65 60 60 57 59 59 57 54 50 49 50 47 41 38 37 36 34 33 32 32 32 29 25 23 20 17 18 19 22 29 38 44 49 49 49 49 53 58 61 62 60 58 59 61 64 63 62 64 60 55 47 48 60 58 57 67 70 70 70 67 64 63 64 65 64 59 55 59 64 63 59 59 60 61 60 58 58 57 54 52 55 55
96 95 99 94 88 86 90 92 83 81 84 81 78 79 79 69 62 65 64 64 67 61 53 51 50 50 47 43 40 38 36 34 33 33 33 32 29 24 19 17 16 17 18 24 35 42 46 48 48 47 49 53 58 61 61 58 58 61 62 66 65 62 62 57 49 44 44 52 53 55 62 63 64 62 60 62 65 64 62 58 51 51 58 62 60 57 58 59 58 58 56 56 56 50 43 42 45
96 98 98 89 84 85 88 91 85 84 87 80 78 81 81 77 70 65 60 59 67 60 47 49 52 49 46 44 41 39 38 36 35 35 35 34 30 24 20 17 16 17 22 33 41 45 47 49 48 46 48 53 56 57 57 56 58 61 62 63 62 59 58 53 46 43 45 51 54 55 56 57 58 57 56 62 66 64 62 58 50 52 60 60 56 53 56 58 56 56 54 54 53 50 45 38 35
95 97 90 82 79 82 86 88 86 85 87 80 78 81 80 79 74 63 52 47 52 50 42 47 50 47 47 45 41 40 39 39 37 35 34 33 29 26 24 21 20 25 34 43 45 46 49 51 50 48 50 55 55 53 53 53 56 58 58 56 54 52 50 48 45 45 47 52 55 54 55 54 55 56 59 64 68 66 63 61 56 56 58 56 55 55 56 57 56 56 56 54 50 49 48 39 33
94 91 81 81 80 80 81 82 86 86 85 81 78 79 79 80 71 60 52 42 39 40 41 47 47 43 45 44 40 40 42 41 37 34 35 33 30 29 27 25 27 36 43 46 46 46 50 52 53 53 55 57 54 52 50 51 54 54 52 49 48 47 46 46 46 47 49 53 54 56 57 54 52 53 54 56 61 64 61 60 57 54 53 52 54 57 58 57 56 57 56 51 46 44 42 38 36
92 86 84 89 85 81 76 76 84 87 86 84 78 76 79 77 65 57 54 47 42 42 44 47 45 44 46 43 41 43 44 42 38 37 38 36 36 36 33 33 37 42 43 45 47 46 48 52 54 56 56 57 55 51 47 48 51 51 49 47 47 47 47 48 50 51 52 54 55 58 59 55 50 48 47 45 48 55 55 54 51 48 49 50 53 56 58 58 58 58 53 47 44 42 41 39 37
91 83 85 87 88 85 74 72 82 86 88 88 81 76 79 75 60 52 52 54 50 44 48 49 43 46 47 43 43 46 47 45 43 43 43 43 44 45 44 44 43 44 44 46 47 45 48 53 55 54 53 56 54 47 46 49 50 50 49 48 47 48 50 52 54 55 56 57 58 58 58 55 48 44 42 36 37 44 46 45 45 44 46 50 53 55 59 60 60 57 51 46 45 44 43 41 37
89 83 82 79 86 91 77 71 78 83 86 88 84 78 79 76 61 51 53 59 57 50 53 51 43 46 46 44 47 49 51 50 48 47 45 46 49 52 51 49 48 47 46 45 46 47 50 54 56 54 54 57 53 45 47 50 49 50 50 47 47 49 51 50 50 52 55 57 58 56 55 54 47 43 39 33 33 36 37 38 40 43 47 50 53 55 58 59 58 56 51 46 45 45 44 41 37
88 90 86 77 79 85 80 73 73 79 83 83 84 82 81 79 65 59 63 63 65 64 56 48 43 46 46 47 51 53 55 54 51 49 46 47 51 52 52 51 52 48 44 44 48 51 53 54 56 56 56 59 57 53 54 52 50 51 52 50 49 50 51 50 49 49 50 52 54 54 53 52 47 44 41 39 41 41 39 38 40 47 53 54 54 55 55 54 53 53 50 46 43 42 41 39 35
83 95 90 80 77 79 82 80 73 77 81 82 86 84 81 80 70 70 77 73 77 76 56 46 46 46 48 52 56 58 58 56 53 50 48 49 50 50 51 52 51 45 43 47 52 54 53 53 57 58 59 61 62 62 60 56 52 52 53 54 52 52 53 54 54 54 54 55 54 54 53 51 49 47 45 44 49 54 53 51 51 56 60 60 57 54 51 49 49 50 49 46 42 40 38 37 34
80 94 87 82 83 79 85 84 75 76 83 88 90 87 82 81 76 77 84 82 86 81 55 48 50 47 50 56 59 60 58 57 53 51 50 50 50 49 50 51 47 44 47 52 53 53 51 52 57 59 61 63 64 61 60 57 55 55 55 55 54 53 56 56 57 57 59 61 59 57 56 55 53 52 50 47 49 56 60 60 61 62 62 60 55 50 46 45 47 48 50 49 44 39 36 35 33
83 94 83 84 88 81 83 84 79 78 82 88 90 90 85 82 81 79 82 83 87 81 58 51 52 50 52 56 59 59 58 57 53 52 53 52 52 51 49 49 47 45 49 52 51 51 50 51 57 62 64 66 65 59 56 56 56 56 56 57 55 55 57 58 58 58 59 60 61 61 60 58 57 57 56 53 49 52 57 60 60 60 57 52 48 45 44 45 46 47 50 51 48 42 38 35 33
86 95 85 85 93 90 83 80 82 83 82 82 85 90 84 80 83 80 79 82 84 74 56 52 52 50 52 53 55 57 54 53 54 56 55 54 53 51 49 49 47 47 50 51 50 49 50 54 60 64 66 68 66 59 56 56 56 56 58 59 58 57 58 60 61 60 59 58 60 62 60 57 55 55 56 56 52 50 53 56 57 55 52 49 48 47 46 46 47 48 51 52 51 48 44 40 35
88 93 92 85 85 90 85 74 76 83 86 84 82 85 82 81 82 79 79 81 81 68 51 50 53 48 48 49 50 52 49 50 58 60 58 57 54 52 51 51 50 48 51 52 48 48 51 56 61 64 66 68 65 60 58 57 56 55 58 61 61 60 60 61 61 60 59 58 58 60 60 58 55 52 51 54 53 50 50 52 52 51 50 51 51 50 49 49 50 50 50 49 49 49 46 43 38
89 92 96 91 81 81 86 83 77 77 82 86 86 84 83 84 80 79 80 79 82 74 54 46 48 46 42 45 47 46 46 49 57 62 62 61 57 53 52 53 54 52 52 52 48 49 52 53 58 62 66 68 64 62 63 61 56 53 56 61 63 63 63 62 60 60 60 58 56 57 59 62 61 55 50 50 51 50 48 47 47 48 50 51 50 51 52 52 53 51 48 47 46 46 45 42 36
87 92 90 90 88 81 87 92 82 77 77 79 84 84 83 83 80 81 82 79 81 83 70 50 42 40 38 41 43 42 45 46 52 59 60 59 58 55 52 52 57 56 53 51 49 51 53 53 55 57 62 69 68 67 70 66 59 54 54 60 63 64 64 62 59 59 61 60 58 56 58 63 63 58 50 47 49 48 47 46 45 47 50 51 52 54 54 54 55 54 51 49 47 46 45 40 33
79 94 90 89 91 84 87 90 80 76 77 77 81 83 82 81 81 83 83 83 81 84 84 64 43 37 37 39 39 41 44 43 47 55 54 53 55 55 52 51 56 58 54 52 49 51 55 55 54 53 58 66 68 69 70 66 61 57 54 56 59 60 60 59 56 56 58 60 59 58 59 60 59 55 50 47 47 47 46 46 47 48 50 52 54 55 55 56 57 58 57 55 53 50 47 41 33
64 86 90 91 91 81 80 81 75 69 70 79 84 85 85 83 83 84 83 83 82 83 89 76 48 37 38 38 37 40 43 42 45 52 53 51 52 53 51 48 52 56 56 54 48 48 51 53 53 51 56 64 66 66 67 66 63 59 57 56 56 57 58 57 55 54 55 57 58 58 58 58 53 50 49 48 47 47 47 48 48 48 49 51 54 55 55 57 58 60 61 60 59 56 53 47 39
57 73 79 83 84 81 74 71 75 74 71 77 81 82 87 85 81 83 83 81 82 84 91 84 53 39 41 38 37 38 41 44 45 48 50 49 50 50 47 46 50 55 57 56 50 46 45 49 52 50 53 62 64 65 69 70 67 63 63 63 59 57 57 57 56 55 56 56 56 55 55 56 52 44 44 47 46 47 49 50 50 49 50 51 53 56 55 56 57 59 61 60 59 59 58 55 48
64 71 74 74 76 79 75 71 78 81 79 78 72 71 80 83 80 84 85 82 82 85 91 87 57 40 41 38 37 37 39 47 50 50 48 45 47 45 44 46 48 54 58 58 54 48 43 46 52 52 52 59 64 67 73 76 72 70 71 70 65 60 58 57 56 56 57 57 55 53 52 53 49 39 38 43 44 46 49 50 50 49 51 52 53 56 56 55 55 55 56 56 56 56 55 54 52
55 65 71 75 79 77 75 77 81 82 85 86 76 68 74 84 84 85 89 86 83 82 82 76 56 41 38 35 34 35 43 50 51 53 50 45 45 41 41 45 48 52 57 60 57 50 44 44 49 53 53 56 63 68 73 77 74 72 74 71 66 63 59 58 56 55 57 57 55 54 51 49 44 34 32 39 41 43 46 46 47 48 52 55 55 56 56 55 54 52 52 52 52 50 48 47 47
39 57 63 67 77 79 80 86 87 86 89 94 90 78 78 89 90 85 90 90 83 78 70 61 50 41 37 32 28 33 45 48 46 50 50 46 46 42 39 44 48 50 53 60 61 52 46 44 45 51 53 54 61 66 70 76 74 71 69 64 61 58 57 57 55 53 54 56 56 55 52 46 41 34 30 36 40 42 44 44 45 47 52 56 57 57 56 56 54 51 51 50 48 46 46 46 46
37 57 60 58 67 75 85 93 91 89 90 95 97 90 87 96 98 92 93 93 87 77 66 57 49 40 34 30 25 29 37 40 40 45 47 46 48 45 39 41 47 47 45 52 58 53 47 46 45 49 52 52 58 64 65 69 73 70 64 58 54 52 52 54 54 52 52 53 56 56 53 45 40 37 32 33 39 43 44 43 44 47 52 56 59 60 59 58 55 52 51 50 49 49 48 47 46
36 55 63 61 64 68 81 91 86 83 89 94 96 97 94 94 95 95 94 94 92 83 70 63 57 49 45 42 36 32 33 36 36 38 42 43 42 45 43 39 42 45 43 45 51 52 48 48 48 47 50 51 54 59 59 60 65 68 65 60 57 52 51 53 53 53 53 53 53 54 52 45 40 39 35 32 37 41 43 44 46 49 53 56 60 61 61 59 56 54 53 53 52 52 50 47 44
31 44 56 61 68 71 76 85 85 88 94 92 93 100 97 88 85 90 92 93 94 88 78 70 67 66 66 63 56 48 42 38 38 38 39 40 40 45 46 40 37 41 44 44 47 49 46 49 51 47 48 48 49 53 57 56 57 63 67 67 66 59 53 54 54 53 53 53 53 54 52 46 40 39 37 34 38 41 42 44 46 49 52 54 57 59 59 57 56 56 56 58 57 52 50 47 42
27 30 35 45 67 78 76 79 84 92 94 89 89 94 97 94 89 86 86 90 92 89 84 75 73 76 77 74 70 64 55 43 41 44 43 41 42 43 43 40 35 36 41 42 43 45 42 45 52 49 47 47 45 49 55 56 55 59 63 66 71 65 52 50 52 51 52 53 53 54 53 48 42 40 38 36 40 44 43 44 45 47 48 49 51 55 56 57 58 59 60 63 60 51 46 45 42
29 26 23 24 38 53 63 72 78 82 86 91 92 88 93 99 95 86 79 82 88 88 84 77 76 80 80 78 76 74 68 53 41 42 45 44 42 41 40 41 40 36 37 38 39 41 39 41 50 50 46 45 43 45 53 56 55 57 60 62 70 66 50 45 48 48 50 53 53 53 53 51 45 42 40 38 39 43 45 45 47 48 46 45 47 52 55 57 59 60 62 65 60 49 43 44 43
29 24 21 20 23 36 60 80 85 83 85 95 99 92 92 96 95 92 82 75 77 80 81 77 75 80 82 81 78 76 74 65 48 39 42 44 43 42 42 45 46 39 34 33 36 40 39 39 46 49 46 43 41 42 49 56 55 56 60 60 64 65 53 45 44 44 47 52 53 52 51 51 49 45 42 40 40 41 44 46 48 48 46 42 44 49 53 57 58 59 60 60 57 52 48 48 46
29 23 20 23 37 58 82 95 93 89 90 95 99 94 90 91 92 96 94 80 67 67 76 78 75 79 83 83 81 77 75 73 59 46 48 49 45 44 45 49 48 40 34 33 34 37 38 39 42 46 45 41 39 40 46 53 55 56 60 60 61 64 58 50 45 42 44 49 53 53 50 49 49 48 45 44 44 43 44 46 47 46 42 38 40 46 52 55 55 55 57 56 55 54 52 52 52
27 26 20 29 59 83 95 98 91 89 89 83 87 89 87 87 85 87 91 81 66 64 75 79 77 79 84 84 82 78 76 74 66 59 62 63 57 52 51 50 46 40 35 33 32 34 36 39 41 43 43 39 37 38 44 50 53 58 61 61 62 63 59 52 46 43 44 48 51 53 53 51 49 50 51 49 49 48 47 46 44 43 40 38 39 44 49 52 51 52 55 55 55 55 51 52 55
25 26 24 44 85 97 93 92 87 89 84 68 72 84 88 86 77 75 81 78 71 70 71 72 74 77 81 84 82 78 76 74 69 67 71 72 70 63 54 49 46 40 34 30 30 31 33 38 41 42 40 36 34 35 41 48 53 58 62 63 63 61 58 54 50 47 45 47 49 49 51 53 51 50 52 53 52 51 49 47 44 43 43 41 40 41 44 47 49 51 54 54 54 55 52 51 55
21 29 35 61 96 99 90 89 86 88 79 61 64 78 85 83 73 72 80 79 77 75 69 69 72 73 77 81 81 78 76 74 70 69 73 76 74 65 53 49 47 41 35 29 27 28 31 36 40 42 40 36 34 33 36 42 49 56 60 63 64 60 58 57 56 53 47 46 48 49 49 50 51 52 53 52 50 49 47 47 46 46 45 43 41 40 40 41 44 48 52 53 53 54 54 52 52
21 30 39 62 90 97 97 93 86 85 73 59 69 82 84 80 74 75 78 78 77 74 70 71 71 70 74 79 80 77 75 75 72 69 73 77 74 63 55 51 43 37 35 31 26 26 30 33 35 40 41 39 36 33 33 34 40 47 51 56 61 59 56 57 58 57 53 50 48 49 51 48 47 50 52 52 49 46 45 44 45 45 45 44 43 43 44 42 43 44 47 51 52 53 54 53 52
20 19 22 41 63 76 88 88 80 81 78 75 86 91 85 82 81 79 77 78 78 76 73 72 70 71 75 77 78 77 76 75 73 70 72 76 74 66 62 58 47 37 35 33 27 23 26 30 31 34 38 39 37 35 34 33 34 38 40 45 52 54 53 56 58 57 58 57 49 47 51 52 48 46 47 50 49 48 48 47 48 46 44 45 47 49 51 50 48 46 44 46 50 53 52 53 52
21 17 23 34 39 46 61 70 66 68 83 96 96 90 86 84 83 78 73 73 80 84 80 75 72 72 76 78 76 77 76 73 71 71 73 74 73 69 68 69 63 53 46 41 34 26 22 24 26 29 33 37 38 36 35 34 33 35 36 38 46 49 50 53 56 57 60 62 55 47 47 51 51 47 45 48 49 48 49 52 56 55 49 47 52 58 60 58 53 48 43 39 42 48 49 51 52
28 32 34 30 32 40 47 59 63 62 79 95 92 90 91 86 84 82 76 71 77 87 86 82 78 73 74 79 78 77 76 72 70 71 73 73 69 68 70 73 74 71 62 52 47 43 37 29 25 27 29 32 37 37 35 35 33 34 35 35 42 47 48 48 51 55 59 62 60 51 46 47 50 51 49 48 51 51 50 53 58 60 57 52 54 59 60 58 53 48 44 38 35 39 43 46 50
30 37 30 24 40 49 43 58 76 76 85 94 90 92 92 87 89 87 80 74 77 86 89 88 86 79 77 79 78 78 78 75 72 70 72 73 68 66 68 71 77 80 74 66 64 68 64 48 31 29 30 29 34 37 36 37 34 34 35 34 37 44 48 47 46 50 53 57 59 54 49 49 49 52 51 48 49 51 51 54 56 57 58 55 53 54 54 55 54 52 53 49 40 36 36 39 43
23 23 21 30 50 49 39 56 74 80 94 99 94 95 89 84 87 81 75 76 76 80 85 86 84 82 81 82 81 81 81 79 75 71 72 72 70 68 68 70 76 82 82 77 76 82 82 66 41 32 33 30 32 36 37 37 37 35 35 34 34 37 44 47 47 48 48 50 54 53 51 52 51 51 52 49 48 49 50 52 52 51 52 51 48 48 50 53 53 54 55 55 52 45 37 35 37
25 22 26 36 46 44 39 47 54 66 92 100 95 97 88 78 81 76 72 76 74 72 75 78 81 82 81 79 78 79 81 81 79 76 76 73 70 70 70 72 75 79 83 82 81 84 88 81 57 38 34 31 29 32 34 34 35 36 36 36 34 33 36 42 47 49 48 47 48 48 48 50 50 51 52 50 49 49 50 52 52 50 47 46 44 42 42 44 46 49 49 49 52 52 47 41 39
33 38 43 40 38 40 39 42 45 55 81 97 96 93 80 70 75 75 73 78 76 71 69 71 77 80 78 73 72 74 77 80 81 80 80 78 73 71 71 73 76 79 82 83 83 84 87 89 73 46 34 33 29 29 32 32 32 33 34 34 35 34 32 35 40 44 47 48 47 45 44 44 46 48 49 49 50 50 50 52 54 53 49 45 42 39 37 36 37 40 43 44 45 48 49 47 45
29 36 44 38 30 33 35 43 51 51 61 75 82 84 73 64 72 75 73 76 74 70 69 68 70 72 72 72 72 73 74 78 83 83 83 83 79 76 72 71 73 77 81 83 85 85 86 90 84 60 40 34 32 30 32 34 33 31 31 32 34 35 33 31 33 37 42 45 47 48 47 44 43 45 46 46 47 48 49 49 51 52 51 46 42 39 38 37 36 36 37 39 40 42 44 44 45
Wind_Speed
4 5 7 8 10 9 8 7 4 3 3 5 7 8 9 11 13 13 15 16 16 14 14 13 11 9 11 15 13 8 10 14 16 16 20 26 27 26 25 23 23 22 20 20 21 19 17 16 15 14 14 13 12 11 10 10 9 8 8 7 6 5 4 3 2 2 2 3 3 3 4 3 3 3 3 3 3 3 3 2 2 3 4 5 6 6 6 6 6 5 7 7 8 10 10 12 14
5 6 8 9 10 8 7 6 3 4 6 7 8 8 10 13 14 13 14 15 14 14 16 12 10 10 12 14 11 9 13 14 11 15 23 26 27 27 24 22 21 20 19 18 18 17 16 14 13 14 13 12 11 11 10 9 8 7 6 5 4 3 2 2 2 2 2 2 2 2 2 3 3 3 4 4 4 4 3 3 3 3 4 6 6 6 6 7 6 6 7 8 9 10 11 12 13
6 8 9 10 10 8 7 5 4 6 8 9 9 10 12 14 14 13 13 14 14 14 15 11 9 11 12 13 9 9 14 12 11 18 23 25 26 26 24 22 21 19 18 17 16 14 13 11 11 13 12 11 10 10 9 8 6 5 4 3 2 2 1 1 1 0 0 1 1 1 1 1 2 2 3 3 3 3 3 3 3 4 5 7 7 7 7 7 7 7 9 10 10 11 12 13 13
7 9 10 11 9 7 6 6 6 6 8 10 10 12 14 15 15 15 15 14 14 14 13 11 11 11 11 11 8 10 14 11 14 19 20 23 24 23 23 22 20 19 18 16 14 12 11 10 10 11 11 10 9 8 7 6 5 4 3 2 2 1 2 2 2 2 3 5 4 2 1 1 3 3 4 3 3 4 4 5 5 6 7 8 8 7 7 7 7 8 11 12 12 12 14 15 14
8 10 10 10 8 6 6 6 7 7 8 11 13 16 18 17 17 16 15 14 15 14 12 10 10 10 10 10 8 11 14 11 16 20 19 23 23 21 21 20 20 18 17 15 13 11 10 9 10 10 9 8 8 7 5 4 4 4 4 4 4 4 4 4 4 5 6 7 6 5 5 5 6 6 7 6 5 6 6 7 8 8 9 9 9 8 8 9 9 10 13 14 14 14 15 15 15
9 10 9 8 6 4 4 6 7 8 10 13 17 20 20 19 17 15 14 15 16 14 12 9 8 9 10 10 10 13 14 12 18 20 18 21 22 20 19 19 18 16 15 13 12 10 9 10 10 9 7 7 6 5 4 4 5 5 6 6 6 6 5 5 6 7 8 8 7 7 7 7 7 7 7 8 7 8 8 9 9 9 10 10 10 9 10 11 11 12 14 15 15 15 16 15 14
9 9 7 6 5 4 4 5 8 10 13 17 19 21 20 19 17 14 13 16 17 15 12 10 8 8 10 11 13 14 13 15 19 19 18 19 20 19 18 17 16 15 13 12 11 10 9 10 10 8 7 5 4 4 4 5 6 7 7 7 7 8 7 7 7 8 9 9 8 8 9 9 8 8 8 9 9 9 10 10 10 10 11 12 11 11 11 12 12 13 15 16 15 15 16 15 14
7 8 7 5 4 6 4 5 9 13 17 19 19 20 20 18 17 15 14 15 16 15 13 11 10 9 10 13 14 13 14 19 21 19 19 17 18 18 17 16 14 14 13 12 12 11 11 10 9 8 6 4 4 5 5 6 7 8 8 8 8 9 8 8 8 8 9 9 8 8 8 9 8 8 9 10 10 10 11 11 11 12 13 13 13 13 12 13 14 15 16 16 16 16 16 15 15
5 5 5 4 5 7 5 7 11 16 20 19 19 20 19 19 17 16 14 14 15 15 13 12 11 10 11 12 14 14 18 22 21 20 19 17 16 16 15 14 13 12 13 13 13 12 11 10 9 7 5 5 5 5 6 7 8 8 8 8 9 9 9 8 8 8 9 9 8 8 8 8 8 8 10 11 11 11 11 12 12 13 14 13 13 13 13 14 15 16 17 17 17 16 15 14 14
3 3 3 3 7 7 6 8 13 19 23 20 20 19 19 19 17 16 15 14 15 14 14 13 11 12 10 11 14 17 20 22 21 21 20 17 16 15 15 14 13 13 13 13 13 12 11 9 8 6 6 6 6 5 6 7 8 8 8 8 8 9 9 9 9 8 9 10 9 8 9 10 9 9 11 13 12 12 13 13 13 14 14 13 13 13 14 15 16 17 18 17 17 16 15 14 14
2 2 2 4 9 8 6 9 14 22 24 21 20 20 20 19 17 15 14 14 15 13 13 13 12 13 11 12 18 21 21 21 21 21 20 19 16 15 15 15 15 14 14 13 12 11 9 9 8 8 8 7 6 6 6 7 7 7 7 9 9 8 9 9 9 9 9 9 9 9 10 11 10 10 12 14 14 14 14 14 14 14 14 14 14 14 16 16 17 18 18 17 16 15 14 14 14
0 1 4 5 10 10 8 8 15 24 25 23 22 21 20 18 15 13 13 13 14 12 11 11 12 13 13 16 22 23 22 22 22 20 20 19 17 17 16 16 16 15 14 13 11 10 9 10 9 8 8 7 6 6 6 6 7 7 7 9 9 7 9 9 10 10 10 9 9 10 10 11 10 10 12 14 16 16 15 14 15 15 14 14 15 16 18 18 18 18 18 17 16 15 14 13 13
2 2 5 1 8 11 11 8 16 27 26 23 22 21 19 16 13 11 12 12 13 13 12 13 13 14 16 20 23 23 23 23 22 20 20 20 19 18 18 17 16 15 14 12 11 10 10 10 9 7 7 6 5 6 6 7 8 7 8 10 8 8 9 10 10 10 10 10 10 10 11 11 11 11 11 12 14 17 17 16 16 16 16 16 18 19 19 19 19 19 18 16 15 15 14 13 13
2 2 4 3 9 11 12 8 19 29 27 24 22 19 17 15 13 12 13 14 17 16 12 14 14 15 20 23 24 24 24 24 23 21 21 21 19 18 17 16 15 14 13 12 12 11 11 9 8 7 7 7 6 5 6 7 7 7 8 9 9 9 10 11 11 10 10 10 11 11 11 11 11 12 11 11 12 14 17 18 18 17 18 19 19 20 19 19 19 18 17 16 15 15 14 13 13
1 1 2 4 8 11 13 10 21 30 27 25 21 19 17 14 13 13 14 16 19 15 9 12 15 18 21 22 23 25 25 25 25 23 22 21 19 17 16 15 15 14 14 14 13 12 11 9 8 7 7 7 6 5 6 6 7 8 9 10 11 11 11 11 11 11 10 10 11 11 11 11 12 12 11 12 12 12 14 17 19 18 19 20 19 19 19 19 18 17 17 15 15 14 13 13 12
1 1 1 4 7 10 13 13 23 30 27 25 22 20 17 15 15 15 16 16 15 11 7 11 17 20 20 19 22 25 25 25 25 24 22 20 19 17 16 15 15 15 15 14 13 12 11 10 9 7 7 7 7 7 6 7 7 10 10 11 12 12 11 11 11 11 10 10 10 11 12 11 12 12 11 12 13 13 13 14 17 18 19 19 18 18 18 18 17 16 16 15 14 14 14 13 12
1 2 1 4 7 8 12 17 25 28 28 26 23 20 18 18 18 17 17 16 12 8 8 13 19 20 19 20 22 25 25 25 25 23 21 19 18 16 15 15 15 15 14 14 13 11 10 9 9 8 8 8 8 8 7 7 9 10 10 11 12 11 10 10 10 11 11 11 10 11 12 11 11 13 13 12 13 14 15 15 16 18 19 19 19 18 17 16 16 16 15 15 14 14 14 13 11
3 3 2 4 7 6 10 18 25 26 27 26 24 21 20 19 19 19 18 17 14 10 10 15 19 19 20 22 23 24 24 24 23 21 19 17 15 14 14 14 14 14 13 12 11 10 9 9 8 8 8 8 8 9 8 8 9 10 10 10 10 11 10 10 10 11 11 11 11 11 11 11 10 12 13 13 14 14 15 16 17 17 18 18 18 17 16 16 15 15 15 15 15 14 14 13 11
4 4 3 4 6 6 10 18 25 27 26 25 23 21 20 18 18 19 18 18 17 14 15 19 19 18 23 24 23 24 23 22 21 18 17 15 13 12 12 13 14 13 12 11 10 9 9 9 9 9 9 8 8 8 9 9 9 10 10 10 9 9 9 9 10 11 11 11 11 11 11 11 10 11 12 13 14 15 15 16 16 16 17 18 17 16 15 15 15 15 15 15 14 14 14 13 13
5 5 5 5 7 8 12 19 23 26 27 24 22 21 20 18 16 17 17 17 17 15 17 22 19 18 24 24 23 23 22 21 19 17 16 14 13 12 11 12 13 13 12 11 10 9 9 9 9 9 9 9 9 9 9 9 10 10 10 10 9 9 9 9 10 11 11 11 11 11 12 12 11 11 12 13 14 15 16 16 16 16 16 17 17 15 15 15 16 16 15 14 14 14 13 13 14
7 6 6 7 8 10 15 21 22 25 26 24 22 21 20 18 16 16 17 17 18 17 18 20 15 16 23 24 23 22 21 21 19 18 16 15 14 14 13 13 13 13 12 10 9 9 9 9 9 9 9 9 9 9 9 10 10 10 10 11 10 10 10 10 11 12 12 12 12 12 12 12 12 11 11 13 14 15 16 16 16 17 17 17 17 16 16 16 16 16 15 14 14 14 13 13 14
7 7 7 8 8 10 16 20 21 25 26 24 22 21 19 18 15 15 16 15 17 18 19 15 9 14 22 22 22 22 21 21 19 18 17 16 15 15 15 15 14 13 11 10 9 9 9 9 9 9 9 8 8 8 9 10 10 10 11 12 12 12 12 12 12 12 13 13 13 13 13 13 12 12 11 12 14 15 15 15 16 17 17 17 17 17 17 17 17 16 15 14 14 13 13 13 14
6 7 8 7 8 11 15 19 21 25 26 24 23 21 20 18 16 15 15 13 13 17 18 12 9 16 20 19 20 21 21 21 20 19 18 16 15 15 14 14 13 12 11 10 9 9 9 9 9 9 9 9 9 9 10 11 11 11 12 13 14 14 14 14 13 13 13 13 14 13 13 13 12 12 12 12 13 14 14 15 15 16 17 17 17 17 17 17 16 15 14 13 13 13 13 13 13
5 8 7 6 8 11 15 17 22 24 24 24 22 20 20 18 16 16 15 14 14 17 17 11 12 19 20 19 19 19 20 20 20 19 18 17 16 14 14 14 13 12 10 9 9 9 9 9 9 9 10 10 10 10 11 11 12 12 13 14 15 15 15 14 14 13 14 14 14 13 13 13 13 13 13 13 14 14 15 15 15 16 16 16 16 17 17 16 15 15 14 13 13 13 13 12 13
3 6 6 5 9 11 15 17 20 22 23 25 24 21 20 18 16 17 16 15 15 16 15 13 17 20 20 19 20 20 20 20 20 20 19 18 17 15 14 14 13 12 11 10 9 9 9 9 9 10 10 10 11 12 12 12 13 14 15 16 16 16 15 15 14 13 13 13 13 13 13 14 13 13 13 14 15 14 15 15 16 16 16 16 16 16 16 15 15 14 13 13 12 12 13 12 12
2 4 6 7 10 11 14 18 19 19 20 23 25 22 20 18 16 17 17 17 16 14 14 16 20 20 19 20 20 20 21 21 21 21 20 19 18 16 15 14 14 13 11 11 10 9 9 9 9 10 11 11 11 12 12 13 14 15 15 16 16 16 15 15 14 13 13 13 13 13 14 14 14 14 14 15 15 15 15 15 15 15 15 14 14 15 15 14 14 13 12 12 12 12 12 12 12
0 4 8 9 12 12 14 18 19 18 18 21 24 22 19 18 18 18 18 19 17 14 15 20 21 19 19 21 21 21 20 20 20 20 20 19 18 16 15 15 14 13 12 11 11 9 8 8 9 10 10 11 11 11 11 13 15 15 16 16 16 16 15 15 14 13 13 13 13 13 14 14 15 14 14 14 15 15 14 14 14 13 13 13 13 13 13 13 12 12 12 11 11 12 12 13 12
2 4 9 12 14 15 15 18 18 18 18 21 23 21 19 19 20 18 16 18 17 15 18 22 21 19 19 21 21 21 21 20 20 20 18 17 16 15 15 15 14 13 13 12 11 9 8 8 9 9 10 11 10 10 12 14 15 15 15 15 15 16 15 14 13 13 13 13 13 14 14 14 14 14 14 14 14 15 14 14 14 13 12 12 12 12 12 11 11 12 11 11 11 11 12 12 12
3 4 9 13 15 15 16 18 17 17 18 20 22 21 21 21 21 18 16 17 16 16 20 23 22 19 20 22 22 21 21 21 20 19 17 16 15 15 14 15 14 14 13 13 11 10 9 9 9 9 10 10 10 11 13 14 14 15 16 15 15 15 15 13 13 13 13 13 13 13 13 13 14 14 13 14 14 14 14 14 13 13 12 13 13 12 11 11 11 11 11 10 11 11 12 12 12
6 6 8 12 16 15 15 17 16 16 16 19 22 23 23 24 23 20 18 18 17 18 21 23 22 21 21 22 22 22 21 20 19 18 17 16 15 15 14 15 15 14 13 12 11 10 10 9 9 9 9 9 10 11 12 14 14 15 16 15 15 15 14 13 12 12 13 14 14 13 13 13 13 13 12 13 14 14 14 14 13 12 12 13 13 12 11 11 11 11 11 10 10 11 11 11 12
8 8 7 11 15 16 16 16 16 17 16 19 23 23 23 25 24 21 20 18 17 17 20 23 23 22 22 23 22 21 20 19 18 17 17 16 16 15 14 15 14 14 13 12 11 11 10 10 9 9 9 9 10 11 11 12 14 14 15 14 14 14 13 12 11 11 12 14 14 13 13 12 12 11 11 12 13 14 14 14 13 13 13 12 12 12 11 12 12 11 11 11 10 10 10 11 12
9 8 7 11 14 14 16 18 18 19 17 19 22 21 23 26 26 23 21 19 18 16 18 21 23 23 23 22 22 20 19 19 18 18 18 17 17 15 14 14 14 13 13 12 11 10 10 10 10 9 9 9 10 11 10 11 12 13 14 14 14 14 12 11 11 11 11 13 13 13 12 11 11 10 10 11 12 13 14 14 14 13 13 12 11 11 11 11 12 12 12 12 11 10 10 11 13
12 9 6 12 16 13 15 17 20 20 17 19 21 20 22 27 27 24 22 20 19 17 16 19 22 22 22 22 21 20 20 20 20 19 19 18 18 16 14 13 13 13 12 12 11 10 10 10 10 9 9 9 9 9 9 10 11 12 14 14 13 13 12 11 11 11 11 11 11 11 11 10 10 9 10 11 12 13 14 14 14 13 12 11 11 11 10 11 12 12 13 13 12 11 11 12 13
15 13 7 12 16 13 14 17 21 20 16 18 20 19 21 26 27 25 24 22 21 19 16 17 20 21 21 22 22 21 21 21 21 20 19 18 17 16 15 14 14 13 12 12 11 10 10 10 10 10 10 9 9 8 8 9 9 11 12 12 12 12 11 11 11 11 10 10 11 10 11 10 9 9 10 11 12 14 14 14 13 12 11 11 10 10 10 10 11 12 13 13 12 11 10 11 13
15 14 9 12 16 13 15 19 22 23 18 18 20 20 21 24 26 24 24 24 22 21 17 16 19 21 21 23 22 21 21 21 21 20 19 18 17 16 15 14 14 13 13 12 12 11 10 10 11 10 10 9 9 8 8 9 9 9 10 10 10 10 10 11 11 11 11 10 10 10 11 10 9 10 10 11 13 14 14 14 13 12 11 11 10 10 9 10 11 12 12 12 12 11 10 10 11
10 11 8 11 15 14 16 19 22 24 22 20 20 19 20 23 26 25 25 26 24 21 19 17 19 21 22 22 22 21 21 21 20 20 20 19 18 16 15 15 14 14 14 13 12 11 10 10 11 11 10 10 9 8 8 8 8 8 9 8 9 9 9 10 11 11 11 11 11 11 11 11 10 10 11 11 12 13 12 12 12 12 11 11 11 10 10 10 11 11 12 12 12 11 10 10 9
8 10 10 10 13 14 16 19 21 23 23 22 21 19 18 21 25 26 27 28 25 23 21 20 20 22 22 22 21 21 21 20 20 20 20 19 18 17 15 15 15 14 15 14 12 11 10 9 10 10 10 10 10 9 8 7 8 8 8 7 7 8 8 9 9 10 11 11 11 11 11 11 10 10 11 11 12 11 11 11 11 11 11 11 10 10 10 10 11 11 12 12 12 12 11 11 10
9 13 13 12 14 14 15 18 20 22 22 23 25 23 21 22 25 27 28 28 25 23 23 22 23 23 21 21 21 21 21 21 22 21 20 20 19 17 16 15 15 14 14 13 12 11 10 9 9 10 10 11 11 10 8 8 8 9 8 7 7 7 7 8 8 9 9 9 9 10 10 10 10 10 10 11 11 11 10 10 10 10 10 10 10 10 10 10 10 10 10 11 11 11 11 11 10
8 14 16 15 17 15 14 17 18 19 21 22 25 25 24 25 27 28 28 28 25 22 22 22 23 24 22 21 20 22 24 24 24 23 21 21 19 16 16 15 14 14 14 13 12 11 11 10 9 10 11 11 11 11 9 8 8 8 7 7 7 7 7 7 7 8 9 8 8 8 8 8 9 10 10 10 10 10 10 10 10 10 10 10 10 10 10 10 9 9 9 9 10 10 10 10 9
9 12 16 17 20 18 14 15 14 15 17 18 22 24 23 26 29 31 30 30 27 22 21 21 21 21 19 18 17 20 24 25 25 24 22 22 19 17 15 15 14 14 14 14 12 11 11 10 9 9 11 11 11 11 10 9 8 7 6 5 5 6 6 6 7 7 8 8 8 8 7 8 9 10 10 10 10 10 10 11 11 11 11 11 11 10 10 9 8 8 8 8 8 9 9 9 9
10 9 11 13 18 20 16 14 13 13 13 14 20 22 23 28 30 31 32 31 29 25 21 21 20 18 15 14 14 16 21 25 25 25 23 22 20 17 14 14 15 14 13 13 12 11 10 10 10 10 11 12 12 11 10 8 8 7 6 5 4 5 5 5 6 6 7 7 8 8 7 7 8 9 9 10 10 10 11 11 12 11 11 11 10 10 9 9 9 8 8 8 8 8 8 8 8
13 10 9 8 11 17 18 14 13 16 14 14 20 16 15 29 33 29 31 32 31 28 23 22 21 20 18 15 14 15 18 21 22 22 22 21 19 16 14 15 15 14 14 13 13 12 11 11 10 10 11 12 12 11 10 8 8 7 7 7 6 5 4 4 5 6 6 7 8 8 8 8 8 9 10 11 11 11 12 12 12 12 11 10 9 9 10 10 9 9 8 8 8 7 7 7 7
16 11 9 8 10 15 17 15 14 18 15 14 22 13 5 23 34 29 29 32 32 31 27 24 24 23 21 18 16 14 14 17 19 19 18 18 17 16 14 14 15 15 15 14 14 13 12 12 11 10 11 12 12 11 10 8 8 8 9 9 8 6 6 5 4 5 5 6 8 8 9 9 9 10 11 11 12 12 12 12 12 11 11 10 9 10 9 9 9 8 8 7 7 7 7 7 7
16 12 9 8 12 15 15 15 15 18 14 13 23 18 4 16 30 30 29 30 32 34 32 27 26 26 23 20 18 15 12 12 15 17 16 15 14 14 13 12 14 16 16 15 14 13 12 12 12 11 11 11 11 11 10 9 9 9 10 10 9 7 7 6 5 5 5 6 8 9 10 10 10 11 12 12 13 13 12 12 11 11 11 10 10 9 9 8 8 8 7 6 6 6 7 7 7
17 11 8 7 10 13 13 14 16 16 13 13 23 22 7 9 26 32 32 32 33 36 36 32 28 27 25 22 20 17 13 11 11 13 13 12 11 12 12 12 14 17 17 15 14 13 12 12 12 11 11 11 11 12 11 10 9 10 10 10 9 7 6 6 5 6 6 6 8 9 10 10 11 11 12 12 12 12 12 11 11 11 11 11 10 9 8 8 7 7 6 5 6 6 7 7 6
21 13 6 4 7 13 14 15 15 12 9 13 24 25 10 5 22 35 37 38 37 36 37 35 30 28 27 25 22 20 17 14 12 11 11 10 10 11 12 14 15 17 17 16 15 14 14 13 13 12 11 12 12 12 12 11 10 10 10 9 8 7 6 6 5 5 6 7 7 9 10 10 11 11 12 12 12 11 11 11 11 11 11 11 10 9 8 8 8 7 5 5 5 6 6 7 6
24 18 10 6 10 16 17 16 15 9 5 12 23 28 17 5 14 32 42 43 39 37 38 36 33 30 30 28 25 23 20 17 15 13 11 9 10 11 12 15 16 17 18 17 17 16 15 14 14 13 12 12 12 13 13 12 11 10 10 9 8 8 8 7 6 5 6 6 7 7 8 9 10 11 11 11 11 11 11 12 11 11 11 11 10 9 9 9 7 6 5 4 5 5 5 6 5
24 18 14 10 13 15 12 10 10 5 2 8 16 28 22 9 9 18 33 41 39 38 37 35 34 32 31 30 28 25 22 19 17 16 14 12 11 12 14 15 17 17 18 18 18 17 16 15 14 14 13 13 14 15 15 15 13 12 11 10 9 9 9 8 7 7 6 6 6 6 6 7 8 9 9 10 11 11 11 11 11 10 10 10 10 10 9 9 7 6 5 4 4 4 4 5 5
21 18 16 12 9 6 4 3 3 4 5 7 11 25 20 12 12 10 19 32 37 38 36 33 33 32 31 31 29 27 24 21 19 18 16 15 14 14 15 16 17 17 17 17 17 18 17 15 14 14 12 12 14 15 16 16 16 14 12 11 11 11 11 10 9 8 7 7 6 6 6 6 7 7 8 9 10 10 10 10 10 10 10 10 10 9 9 8 8 7 6 5 5 5 5 4 4
23 23 21 13 7 3 1 0 2 4 9 8 8 20 12 8 12 11 13 22 30 36 36 35 34 31 31 32 31 30 27 24 22 19 18 16 15 15 16 17 17 17 16 15 16 17 17 16 14 13 12 12 13 14 15 16 16 16 14 13 12 12 12 12 11 9 8 8 7 7 6 6 6 7 8 9 10 10 9 10 10 10 10 9 9 8 8 7 8 7 7 7 6 6 6 5 5
23 23 20 16 13 8 4 6 5 3 4 3 9 14 6 5 8 9 11 15 24 34 37 38 35 32 32 33 32 32 30 27 24 21 19 16 15 16 16 16 16 16 16 14 14 16 17 16 14 14 13 12 13 13 14 15 15 16 15 14 14 13 13 13 12 11 9 8 8 8 7 7 7 7 8 8 9 9 9 9 9 9 9 9 8 8 7 7 7 7 8 8 8 7 7 7 6
22 22 21 19 18 13 8 12 14 10 7 5 12 10 5 8 9 10 9 12 22 34 39 41 38 34 35 35 35 34 31 30 26 24 22 18 17 18 17 16 14 15 15 15 14 14 15 15 15 15 14 13 13 13 14 15 15 16 16 16 15 13 13 13 13 12 11 10 9 9 9 8 8 7 7 8 8 8 8 8 8 7 8 9 8 8 7 7 7 7 7 8 9 9 8 8 7
23 24 24 20 18 15 8 8 10 9 5 4 11 7 5 7 7 7 6 11 21 32 38 42 40 37 37 38 37 34 32 31 29 27 25 21 19 19 19 17 15 15 15 15 14 12 12 13 14 15 15 15 15 15 15 15 16 16 16 16 15 15 14 13 13 12 12 11 10 10 10 9 9 8 8 8 8 8 8 8 7 7 7 8 8 7 7 8 8 7 7 8 8 9 9 9 8
23 27 25 18 16 16 9 6 6 4 2 3 9 7 6 6 3 4 8 12 19 28 35 40 40 39 38 38 38 36 33 32 30 28 27 24 22 19 19 19 17 15 14 14 13 11 10 12 14 15 15 16 16 15 16 16 16 15 15 15 15 15 15 15 14 13 13 12 11 11 11 10 10 9 9 9 9 8 8 8 7 7 7 6 7 7 7 7 7 7 8 7 7 8 9 10 10
20 23 24 18 14 14 10 6 4 3 1 1 5 7 9 10 8 9 12 15 18 23 29 35 38 38 37 35 35 35 34 33 31 29 27 26 25 22 20 19 18 17 15 15 14 12 11 12 14 15 15 16 17 17 17 16 16 16 15 15 15 16 16 16 16 15 14 13 12 11 11 11 11 11 10 10 9 9 9 8 8 7 7 6 6 6 6 6 7 7 8 7 7 8 9 10 10
19 21 27 22 15 15 14 8 6 6 3 1 2 3 8 13 13 12 15 18 18 19 23 26 30 34 35 33 32 32 32 33 32 29 27 27 27 25 23 21 20 19 17 17 17 15 13 13 14 15 16 17 18 18 18 17 17 17 17 16 16 16 17 17 17 16 15 14 13 13 12 12 12 12 11 11 10 10 10 9 9 8 8 7 7 6 6 6 6 7 7 7 7 7 8 10 10
23 26 30 27 18 17 15 9 7 9 4 3 3 1 7 15 15 14 19 21 19 18 20 21 23 28 31 33 33 32 31 32 32 31 29 29 29 27 26 25 23 21 20 19 18 17 16 15 15 16 17 18 18 18 18 17 16 17 17 18 17 17 17 18 19 18 17 15 14 14 14 13 13 13 12 12 11 11 11 11 10 9 9 9 8 7 7 6 6 6 6 6 6 7 8 9 10
24 27 30 27 20 19 16 6 6 10 6 6 6 2 7 16 17 17 21 23 23 22 21 20 20 23 26 30 32 32 32 33 33 33 32 32 31 30 28 28 27 25 23 22 20 19 18 17 17 18 18 19 19 19 18 17 17 17 17 18 18 18 18 19 20 20 19 18 16 15 15 15 14 14 13 13 13 13 13 12 12 11 11 11 10 9 8 7 7 7 7 7 7 7 8 8 9
Wind_Direction
142 170 179 167 155 148 146 147 143 146 160 166 166 164 163 164 156 149 148 149 152 147 140 137 139 138 136 133 119 114 125 129 133 136 142 146 146 143 139 135 133 132 131 130 129 132 133 133 133 129 122 120 124 124 126 127 125 124 121 124 126 132 138 150 162 181 196 199 199 195 201 209 213 220 227 227 224 215 199 185 176 166 158 157 160 155 143 138 138 131 125 127 120 108 100 97 98
149 174 173 159 151 146 149 149 140 144 150 162 169 168 164 163 155 149 152 150 148 145 148 147 136 133 138 135 110 107 131 132 133 140 143 145 145 143 142 139 135 133 133 131 129 132 133 132 129 122 120 124 128 127 129 126 125 125 123 127 130 145 163 185 202 215 223 221 215 218 223 227 231 238 238 234 228 218 208 193 191 188 171 161 166 163 150 147 150 147 138 135 130 116 107 106 103
159 174 166 153 146 146 157 157 152 152 153 164 170 167 160 157 152 150 155 154 150 151 157 151 141 139 146 147 109 108 137 134 136 146 145 143 145 144 144 142 139 137 135 133 132 133 132 127 121 120 123 126 127 127 128 126 127 125 128 136 141 169 159 171 176 70 275 62 47 6 297 248 223 222 215 208 199 191 186 169 168 169 158 156 158 158 152 150 153 152 143 137 133 118 110 107 102
165 170 165 155 147 142 143 144 153 157 160 168 165 158 152 151 155 156 157 158 154 159 166 155 148 144 147 156 119 120 142 136 143 148 143 140 143 143 143 144 142 140 137 135 133 132 131 125 120 122 123 125 126 124 124 125 125 123 122 117 118 106 82 91 81 70 75 80 80 75 69 98 114 118 123 127 131 130 134 140 146 152 149 148 147 146 144 142 147 145 138 135 131 118 109 106 103
168 169 166 155 146 143 141 141 147 152 162 167 160 153 150 153 158 157 155 158 160 166 174 159 148 143 142 152 132 134 142 141 148 148 144 140 141 143 143 144 142 140 137 135 132 131 133 129 126 124 123 127 124 117 118 117 112 107 105 104 100 88 85 86 80 85 90 97 102 101 98 98 102 102 105 111 114 117 125 131 138 147 143 136 136 134 132 133 134 132 133 134 127 118 112 109 106
174 170 162 148 139 145 153 151 145 143 156 161 159 157 154 157 158 153 152 159 165 169 174 161 144 139 137 142 136 140 141 146 152 149 148 141 139 143 142 142 141 140 138 136 133 133 137 135 130 127 130 130 120 115 115 105 97 97 100 100 97 94 95 92 85 89 98 105 106 105 104 100 101 102 104 112 118 121 128 132 135 140 136 130 130 128 127 130 129 129 132 131 125 118 113 109 105
179 177 166 149 144 154 154 153 150 143 153 161 162 161 158 159 156 151 154 159 163 166 170 160 147 144 141 139 136 140 138 146 153 150 150 143 140 144 143 143 142 141 142 139 138 139 142 140 135 138 142 133 121 119 109 98 96 101 102 99 103 107 104 98 91 92 99 103 102 100 99 97 98 101 107 114 118 121 127 132 134 134 129 125 127 125 125 128 127 129 131 127 123 118 112 108 104
184 190 182 171 158 157 149 150 155 148 156 165 165 163 161 159 156 153 155 158 157 158 163 160 156 156 146 139 138 140 139 146 153 153 153 148 145 146 145 145 143 144 145 143 143 145 147 144 144 150 148 133 123 117 109 104 105 108 107 105 110 110 102 98 95 95 96 94 95 96 96 97 98 106 116 118 119 121 124 128 127 126 125 123 124 122 125 128 126 128 129 125 122 117 112 110 106
189 196 189 191 164 147 135 146 153 152 160 167 167 164 161 159 156 153 152 155 156 155 159 158 158 161 150 143 143 144 144 147 153 156 156 154 150 149 148 146 144 146 147 146 147 150 151 150 152 155 147 137 129 121 115 112 112 112 108 105 107 106 100 100 101 100 95 92 94 96 101 104 105 109 116 118 119 122 124 125 122 121 122 122 121 121 125 126 126 128 127 124 120 116 114 112 107
201 198 182 193 167 151 133 146 153 156 163 168 167 163 160 160 159 155 153 156 158 156 159 157 159 166 163 155 150 149 149 148 152 157 157 158 156 154 153 148 147 149 150 149 150 153 154 155 159 154 149 145 134 128 117 113 114 113 111 105 103 105 104 105 106 105 102 100 98 99 105 110 112 112 117 119 119 122 123 123 122 122 123 122 122 122 122 122 123 125 124 122 119 117 116 112 108
211 203 229 213 177 171 148 144 155 160 165 168 166 162 161 162 161 162 162 162 164 162 161 160 166 175 178 165 153 150 149 148 152 156 155 157 156 155 153 149 148 150 152 152 153 156 159 161 160 152 148 142 135 131 117 115 115 114 118 109 105 108 107 107 110 113 111 106 102 104 109 112 117 116 118 121 120 121 122 123 124 123 123 123 122 120 121 122 122 124 124 121 118 118 116 112 109
274 319 289 240 182 180 169 148 159 163 166 169 167 163 163 164 160 161 158 161 169 167 164 168 172 179 183 165 152 150 150 149 153 155 153 151 150 151 150 148 150 152 153 155 158 162 162 157 152 147 140 135 130 123 119 118 117 125 127 109 107 115 113 114 119 122 118 114 109 109 112 114 119 116 116 123 125 122 120 123 124 123 122 123 121 120 121 123 123 124 123 120 119 117 114 111 108
9 352 320 260 156 172 174 159 165 165 166 169 169 167 165 161 154 154 150 153 161 154 155 168 171 177 178 162 152 151 151 151 153 153 151 148 149 151 151 151 153 154 155 158 160 160 155 146 141 137 126 123 119 119 125 121 124 133 119 105 113 124 124 125 127 127 124 123 116 112 113 112 115 113 114 120 120 120 119 118 119 120 123 125 123 121 122 123 124 123 121 121 120 118 114 112 108
23 353 338 92 130 162 175 174 171 167 167 170 172 170 166 158 151 151 147 144 145 139 146 165 170 175 174 162 155 153 152 152 151 152 152 149 151 154 155 155 154 154 155 155 155 152 146 134 129 124 113 113 113 118 118 120 132 128 109 111 124 129 129 129 128 130 130 125 116 111 110 109 109 109 111 109 102 111 120 120 119 122 126 127 124 121 122 123 124 123 122 122 121 119 116 113 109
359 348 350 137 139 162 178 179 172 169 168 172 175 173 165 156 150 149 148 144 140 134 144 170 173 176 176 166 156 153 153 152 150 152 154 152 153 157 157 154 152 151 151 150 148 145 139 128 124 117 109 113 104 93 101 118 128 116 113 123 126 125 126 127 127 129 130 123 116 114 111 109 105 103 104 106 101 103 112 116 119 122 123 123 120 119 121 123 123 123 121 121 121 119 117 116 115
289 52 86 154 152 167 176 170 169 170 171 174 178 173 163 153 150 149 151 151 146 138 144 171 174 176 178 169 156 152 153 152 151 154 156 154 155 157 155 150 148 148 147 147 145 142 136 130 128 120 117 118 104 97 110 119 112 111 118 122 121 123 123 122 125 127 128 123 121 120 117 114 111 109 105 104 108 107 105 108 114 118 119 119 119 120 121 120 120 120 120 121 121 120 118 119 119
109 117 96 164 167 174 176 170 170 173 173 176 179 172 160 154 152 152 156 160 163 158 157 172 175 174 175 167 156 154 154 153 153 155 156 155 155 155 151 147 145 145 145 145 143 140 137 133 130 127 128 125 117 112 113 108 104 110 116 116 118 121 120 119 124 130 131 126 127 128 122 119 118 116 111 108 108 111 112 113 114 117 119 121 121 120 120 119 119 119 120 121 122 122 121 119 119
112 107 85 157 167 175 182 175 172 175 175 177 178 170 162 159 154 154 161 168 178 185 173 175 175 170 170 166 159 156 155 154 155 155 155 154 152 150 147 143 141 141 142 142 142 141 139 136 132 129 127 122 119 114 107 105 107 111 114 116 118 121 123 125 130 137 137 131 131 132 125 120 115 110 112 115 115 116 116 115 118 121 124 123 120 120 120 119 119 119 119 121 123 123 122 120 115
104 102 104 145 164 175 182 175 172 176 177 179 178 170 167 165 159 159 165 170 180 189 177 174 175 171 171 168 161 159 156 154 154 152 152 150 145 142 143 141 138 138 140 142 142 143 141 136 132 128 123 119 118 114 111 112 113 112 115 120 121 124 126 130 137 140 140 134 130 130 124 119 112 107 111 116 117 118 114 114 122 127 126 121 118 120 119 119 119 119 120 122 124 122 119 116 111
99 106 115 135 156 165 171 171 173 177 180 184 180 173 173 169 166 167 168 169 176 187 176 169 174 177 175 169 163 159 156 154 150 148 149 146 141 138 138 137 137 138 141 144 145 145 141 134 129 124 122 120 118 118 117 117 116 116 117 120 122 127 130 136 141 141 141 135 128 127 123 118 114 111 114 116 115 115 116 119 125 126 123 119 119 121 121 121 120 120 121 122 123 121 116 112 109
90 103 116 127 148 157 166 170 173 177 183 187 182 178 174 170 173 174 173 168 166 170 168 166 177 185 178 170 162 159 154 151 148 147 147 146 143 140 140 140 141 142 142 145 146 144 138 131 125 121 121 119 118 119 120 119 118 119 119 120 122 127 134 140 143 142 141 136 132 130 124 118 116 116 115 116 115 115 120 123 123 124 124 123 125 125 123 122 121 122 122 122 122 121 119 114 111
81 94 118 131 147 158 165 169 173 178 184 186 184 181 175 172 175 177 178 169 155 153 159 169 188 187 179 169 161 157 153 150 147 146 146 145 146 145 145 144 142 142 144 145 145 142 135 128 122 120 120 118 117 117 120 120 120 120 120 122 124 128 134 139 142 142 140 136 133 131 125 120 117 117 115 115 116 119 123 124 124 126 128 127 127 125 123 124 124 124 123 122 122 122 123 120 117
78 94 123 138 143 156 165 169 172 176 183 187 188 183 175 174 172 174 177 167 150 151 161 173 183 181 178 169 160 156 153 150 147 145 145 145 147 147 143 140 140 142 143 144 141 137 131 126 122 119 120 119 116 117 121 121 120 120 121 123 125 129 134 137 139 139 138 136 132 131 127 124 120 116 115 117 119 122 123 124 125 127 127 126 124 124 124 124 124 124 123 122 121 121 120 120 119
81 94 114 132 136 156 166 168 172 176 184 188 189 185 179 174 170 171 170 162 155 159 171 175 171 176 177 169 161 157 155 151 149 146 146 148 149 148 144 142 142 141 141 140 138 135 130 126 121 119 122 121 118 120 123 121 119 120 122 124 127 130 131 133 135 136 137 136 133 133 130 126 124 118 116 119 121 123 124 125 127 127 127 126 126 127 127 126 125 123 123 123 121 118 117 118 120
74 99 107 122 125 149 167 170 173 178 185 186 185 186 182 176 170 169 161 157 160 164 177 174 168 176 174 167 162 160 159 156 153 151 150 153 154 152 150 147 143 139 137 136 135 133 130 126 121 121 123 123 121 124 124 121 119 121 123 124 127 129 128 129 131 133 135 135 135 134 133 130 128 123 120 121 124 126 128 129 130 130 130 130 130 131 130 129 126 124 123 123 121 119 118 120 122
51 127 130 136 127 140 170 176 176 181 185 184 185 185 184 179 172 170 158 155 163 167 174 168 167 175 171 166 164 162 162 160 157 155 154 155 156 155 151 146 141 139 137 134 134 133 130 126 122 122 125 126 125 126 127 123 119 120 124 125 126 127 127 128 128 130 132 133 135 135 135 133 131 129 126 126 128 130 131 132 134 133 132 132 131 129 128 126 124 123 122 121 120 119 119 119 122
117 154 149 149 138 142 171 178 176 180 182 183 186 187 186 185 179 175 163 160 168 171 170 164 166 173 169 166 166 164 164 162 160 159 158 156 155 153 150 146 141 137 134 131 132 133 132 126 123 124 126 127 127 127 130 128 121 119 123 125 126 127 128 129 129 131 131 131 133 134 134 134 133 133 131 132 133 134 134 135 136 136 134 130 127 123 121 122 122 121 121 120 119 118 119 119 120
183 166 156 153 144 146 163 174 175 176 179 184 190 191 190 190 189 184 170 164 173 174 169 164 165 171 171 170 168 166 166 164 163 161 157 154 152 151 149 146 140 135 132 131 132 132 132 130 127 127 126 127 128 126 129 132 126 120 122 124 127 129 130 131 132 132 134 133 132 134 134 135 135 135 136 137 139 140 137 137 137 136 132 126 120 117 119 122 123 124 124 123 120 118 120 120 120
180 167 155 150 144 148 161 169 176 174 177 186 191 194 195 195 195 189 172 165 171 175 170 164 165 170 173 174 171 169 169 167 164 159 155 153 151 151 151 147 141 139 135 131 131 128 129 132 131 127 125 126 128 127 126 127 125 123 123 123 127 132 134 135 134 134 137 138 136 136 135 134 135 137 140 143 145 144 140 138 136 133 127 120 116 116 121 126 126 127 127 126 124 122 122 123 123
184 174 159 155 149 156 165 168 179 177 177 187 188 192 196 197 198 187 170 167 169 172 171 166 165 171 175 177 176 173 172 168 162 157 155 154 153 154 153 149 146 144 138 132 128 125 127 132 134 129 124 123 128 130 126 120 119 124 126 124 128 134 138 139 138 137 139 142 142 139 136 134 134 136 141 146 148 147 143 139 135 130 123 118 118 121 125 130 130 130 132 132 130 127 125 125 124
183 182 173 177 166 166 172 172 183 183 179 186 188 193 195 196 198 187 172 170 169 167 172 170 167 173 179 181 181 178 173 166 161 159 158 155 156 156 154 153 151 146 141 137 130 125 128 133 136 134 127 122 128 132 127 120 116 121 128 128 130 136 139 141 142 140 139 143 145 142 138 133 130 130 135 142 147 148 144 139 134 129 124 122 124 127 130 133 134 136 138 138 135 131 129 128 125
183 189 177 189 185 177 179 177 182 186 183 185 189 196 197 195 197 192 179 175 172 168 172 173 172 177 183 184 184 181 175 167 164 163 162 161 160 158 156 153 151 149 148 143 135 131 132 134 138 139 132 127 127 128 125 122 116 118 127 131 133 137 140 142 144 142 140 142 143 141 138 134 126 123 126 134 143 147 144 138 133 129 127 127 129 132 135 136 137 138 138 138 138 136 134 131 127
191 203 191 186 188 184 185 178 175 184 189 189 191 195 198 198 197 196 189 182 179 176 176 177 177 181 185 187 187 183 178 173 170 167 166 166 163 159 158 153 150 154 154 146 140 138 136 137 142 141 137 134 132 127 125 125 122 119 125 130 133 137 141 145 146 145 144 143 144 143 139 133 127 123 124 130 139 143 141 136 132 130 131 132 133 136 136 136 136 136 136 136 136 137 136 131 126
192 206 210 186 188 188 186 179 174 181 190 195 195 195 201 201 198 198 194 189 187 183 182 182 181 183 185 188 189 185 182 178 174 171 168 167 165 161 159 156 154 157 155 150 146 145 143 144 146 144 139 139 136 131 127 128 127 120 120 127 132 135 140 147 150 150 150 148 147 146 141 137 134 132 132 134 138 141 140 136 132 132 134 135 138 139 138 136 135 134 134 133 133 135 134 128 123
190 201 208 189 190 192 185 177 173 178 189 197 198 198 203 204 200 198 194 192 189 184 186 188 185 184 184 188 188 186 185 181 176 173 170 168 166 164 162 160 159 158 156 155 153 149 149 150 147 146 143 137 132 129 123 126 128 119 114 120 127 133 139 146 152 154 154 151 150 149 147 145 144 141 140 140 141 142 141 138 135 134 136 140 144 144 141 138 135 135 136 136 136 136 134 126 120
190 191 199 195 193 193 186 179 177 181 188 195 200 202 204 204 201 197 193 191 187 183 188 193 189 186 187 189 187 187 187 181 177 176 173 170 168 167 166 164 162 160 159 160 158 154 151 150 148 148 144 133 127 126 121 121 124 120 114 115 122 130 138 145 151 155 155 154 153 152 150 150 149 145 145 145 143 143 143 142 140 140 142 146 148 147 142 138 138 140 142 141 139 137 136 131 124
181 177 185 201 205 200 190 187 187 187 191 192 197 207 211 211 204 198 193 190 186 185 190 192 190 191 191 191 188 188 187 181 178 177 173 172 170 169 168 168 167 164 164 163 160 157 150 147 151 151 143 131 126 128 127 126 130 129 122 117 121 129 137 145 149 154 156 155 154 153 150 149 147 144 145 146 144 143 145 147 148 148 150 150 149 147 143 141 143 143 143 142 140 138 137 136 133
175 187 193 209 217 210 199 200 198 195 198 196 195 202 213 216 209 201 195 191 189 186 188 186 188 195 195 193 191 186 183 182 181 177 172 171 171 170 170 170 170 169 167 165 163 160 152 149 153 152 146 137 133 137 140 141 144 144 138 131 131 136 142 146 148 151 156 158 158 154 151 146 142 141 145 146 144 145 149 154 155 156 156 153 150 149 148 148 146 142 139 138 139 138 136 134 134
189 200 205 214 217 213 204 209 210 202 204 204 199 198 207 213 209 205 197 191 191 188 186 182 186 197 199 197 193 182 181 183 181 175 171 170 168 170 173 172 172 173 171 168 169 166 156 152 154 153 152 148 143 146 151 152 152 152 147 140 139 140 144 146 146 149 155 163 165 161 157 149 142 141 146 150 151 153 158 162 163 163 161 157 156 156 154 151 145 138 135 135 137 135 132 129 129
209 207 210 213 213 214 207 204 208 205 206 210 202 196 204 208 205 205 201 194 192 189 184 180 186 198 202 202 195 185 185 185 179 174 169 168 168 169 175 176 175 176 174 170 172 172 162 154 155 158 159 157 154 155 158 158 157 156 149 139 134 131 134 137 138 144 152 163 169 169 167 157 148 145 148 155 160 165 168 169 169 168 163 161 162 161 157 151 145 140 136 133 133 132 132 132 132
220 212 208 211 212 216 214 202 196 198 208 212 197 190 199 204 205 205 203 200 198 194 187 182 183 190 195 196 190 187 191 187 179 174 170 169 169 166 171 180 181 180 178 174 173 173 168 158 159 167 166 164 165 162 157 153 154 157 148 129 111 105 115 124 129 136 146 161 171 172 173 167 158 154 155 160 166 172 174 173 172 171 167 166 165 162 159 155 150 143 136 131 133 136 138 141 139
226 220 201 207 217 218 216 206 187 186 201 205 192 189 196 199 205 207 203 202 202 199 195 187 181 183 188 188 182 183 190 187 180 174 171 170 167 164 168 180 185 185 183 181 176 174 173 164 165 175 173 171 172 165 156 149 148 155 150 135 121 114 123 131 135 142 149 159 170 175 177 175 170 166 165 168 170 173 174 172 172 171 171 170 167 165 163 157 150 143 137 134 137 140 141 144 141
226 224 201 207 220 218 217 213 194 185 193 195 192 196 183 189 198 205 204 206 206 203 200 193 187 187 191 191 187 186 188 185 179 173 172 171 168 166 169 177 185 188 188 184 178 177 177 169 167 179 180 178 177 168 160 152 148 155 153 145 142 143 146 150 151 153 156 162 168 178 181 180 177 175 175 176 175 177 175 173 172 172 173 173 171 170 165 155 147 144 141 140 142 139 134 135 137
223 225 216 226 225 222 226 224 209 196 189 186 195 201 184 185 195 199 203 208 210 209 206 198 193 192 193 194 196 197 195 189 182 176 172 173 171 166 163 171 182 189 191 186 180 180 180 172 169 179 185 184 181 174 167 159 155 159 157 151 152 157 158 157 158 161 169 173 174 179 183 183 182 182 183 183 181 180 178 176 177 177 175 175 174 172 165 156 151 149 147 145 145 133 121 122 131
221 224 220 233 229 228 229 215 206 199 184 181 195 199 191 197 202 199 200 208 214 214 209 203 198 195 195 198 199 202 203 199 191 181 171 167 165 158 155 162 175 187 193 187 183 186 186 179 174 178 186 187 184 178 172 167 166 165 162 158 157 161 159 153 158 165 169 177 180 180 181 182 184 185 187 188 187 183 179 179 183 183 180 179 178 173 168 164 161 157 151 145 140 131 122 120 127
220 223 217 205 208 211 204 194 193 189 187 198 197 194 188 206 208 202 199 206 213 215 212 207 202 199 198 201 202 203 205 202 196 189 175 162 152 148 154 160 169 183 190 189 188 191 192 186 181 180 184 187 184 179 176 174 173 170 166 164 160 161 158 149 156 167 162 167 179 179 176 177 180 183 186 190 190 187 183 184 186 186 185 183 179 177 177 178 173 165 157 148 140 136 135 132 136
219 226 232 191 176 188 184 183 186 175 216 229 204 194 195 210 215 209 205 207 209 211 212 209 205 203 201 203 204 205 205 201 195 191 182 170 155 152 162 166 168 176 186 190 192 195 196 191 186 184 182 183 180 178 180 180 178 175 173 170 164 163 159 153 154 160 157 158 169 175 174 175 176 178 184 187 189 190 189 189 188 187 187 185 182 182 186 188 180 172 170 162 152 148 147 147 152
214 223 225 179 156 170 166 164 174 163 272 256 208 195 199 214 228 221 214 212 209 210 213 211 207 205 202 203 205 206 207 203 197 192 186 187 184 172 171 172 172 174 183 191 194 197 199 194 191 189 184 180 177 177 182 183 181 180 180 177 172 167 161 158 159 159 159 158 160 165 167 172 174 174 181 185 187 189 192 192 191 189 189 189 189 190 192 193 187 184 187 184 175 168 163 166 171
213 216 202 163 129 152 148 119 161 211 252 295 226 198 199 224 236 246 228 216 211 212 215 216 211 207 203 204 206 207 208 206 202 197 191 193 194 180 173 176 178 177 180 188 194 197 199 198 195 194 190 183 179 180 184 185 182 181 183 182 180 173 166 165 167 165 164 163 159 158 158 166 173 173 180 185 186 187 190 191 191 192 193 194 195 195 196 196 194 195 199 200 195 188 185 192 197
207 209 195 168 125 105 92 30 350 262 251 292 232 197 202 241 238 250 240 219 211 209 213 218 217 212 206 205 207 209 210 207 205 203 199 196 193 181 175 179 182 181 179 184 193 196 199 202 200 198 198 192 186 185 188 189 186 182 182 183 182 178 172 171 173 171 170 167 165 165 162 165 173 178 184 187 185 184 184 187 189 191 195 197 200 201 200 201 202 205 210 212 210 202 199 206 215
204 214 214 200 183 167 160 196 193 163 201 214 180 186 217 249 237 249 237 221 210 205 209 216 217 215 211 208 208 211 212 210 207 206 203 199 194 185 177 176 181 183 182 183 190 195 199 203 204 203 205 202 196 191 192 194 193 188 185 182 180 182 181 179 178 177 173 172 173 173 169 170 176 180 184 185 185 185 184 186 189 191 195 197 201 205 207 210 212 215 219 222 220 214 210 211 216
202 212 217 213 207 201 186 189 188 161 127 151 176 190 248 239 254 272 241 217 208 204 208 212 214 214 211 209 209 211 213 212 211 210 206 201 196 189 181 176 178 183 184 185 188 193 197 203 207 208 209 207 205 200 196 196 198 196 192 186 181 182 187 188 185 180 176 179 183 181 177 177 178 177 179 179 180 184 186 188 191 194 197 198 201 206 211 215 221 226 228 230 226 223 221 220 222
196 201 208 215 220 219 193 163 172 160 122 167 188 206 254 231 263 282 227 201 201 203 207 210 212 213 211 209 210 212 214 214 215 215 212 207 200 192 185 182 180 182 186 186 186 189 196 204 207 210 212 211 209 206 201 200 201 200 199 195 187 183 187 192 192 186 183 186 190 189 185 182 179 177 179 179 175 179 184 185 189 196 199 201 205 210 214 217 221 224 229 233 230 227 227 227 229
199 198 205 211 211 213 196 137 137 139 81 197 198 215 229 197 188 215 197 191 194 200 206 209 212 214 212 210 210 212 215 217 219 218 216 213 208 200 191 188 186 184 187 187 184 186 199 208 206 208 213 213 212 211 207 204 204 203 203 201 196 191 190 192 195 195 191 190 193 195 190 185 184 183 184 183 177 178 182 184 187 193 198 204 209 212 218 222 221 220 225 231 231 228 228 229 231
209 204 202 198 195 200 188 146 143 148 69 263 217 223 224 203 190 195 195 192 195 199 204 209 213 214 213 211 212 215 218 220 221 221 219 217 214 208 200 195 194 191 190 190 188 192 206 216 210 205 209 211 209 210 210 208 207 206 204 203 201 200 198 196 196 198 198 194 194 197 196 193 190 189 189 188 183 183 187 189 191 193 196 202 208 211 218 225 224 222 225 229 229 228 231 231 232
205 205 200 199 201 199 192 183 175 166 160 239 223 236 228 214 208 203 195 195 201 202 203 206 210 211 213 214 216 220 223 223 223 223 222 219 218 215 210 206 204 200 197 195 195 198 208 221 220 211 210 211 209 208 208 208 208 207 207 205 202 202 203 203 201 201 200 199 198 198 200 201 198 194 193 193 191 192 195 197 199 199 199 201 205 207 212 221 224 224 225 228 230 229 231 232 234
193 194 193 195 199 197 194 196 184 174 170 159 148 258 228 211 208 204 197 195 200 204 204 203 203 206 210 214 218 221 223 224 224 224 224 222 220 219 217 216 213 207 204 202 201 203 209 220 225 220 215 215 214 211 208 208 208 208 208 208 206 204 204 206 207 205 203 203 204 202 202 205 204 201 199 198 197 198 200 202 202 203 203 203 205 205 206 212 218 220 221 223 226 229 232 233 234
190 192 192 190 192 191 186 181 186 187 191 176 168 216 219 203 200 201 200 199 200 202 202 202 205 209 213 215 217 219 220 222 223 224 225 224 224 223 222 221 217 211 207 206 206 207 211 218 223 223 221 218 217 215 212 210 211 210 208 208 208 207 206 207 209 209 207 207 208 207 206 208 207 206 205 204 204 205 205 205 204 205 207 207 207 207 207 210 214 217 216 216 218 223 230 232 233